NKS1486 KPHL-KDTW

Flight info

Callsign NKS1486
Flight time 1h 15m
Altitude 36000
Route MXE PENSY J110 FLIRT BRNAN Q42 PSYKO KOZAR BONZZ2
Aircraft A321/M-SDE3FGHIRWY/LB1

Departure

Time 2026-05-04 22:23
Airport Philadelphia International Airport (KPHL)

Arrival

Time 2026-05-04 23:38
Airport Detroit Metropolitan Wayne County Airport (KDTW)
Time Latitude Longitude Altitude Speed Heading
2026-05-04 21:54 39.87868 -75.23810 26 ft 0 kts 198°
2026-05-04 22:09 39.87876 -75.23807 29 ft 4 kts 197°
2026-05-04 22:09 39.87900 -75.23795 29 ft 2 kts 216°
2026-05-04 22:09 39.87915 -75.23781 27 ft 4 kts 175°
2026-05-04 22:09 39.87927 -75.23793 31 ft 3 kts 109°
2026-05-04 22:10 39.87933 -75.23816 31 ft 0 kts 109°
2026-05-04 22:12 39.87931 -75.23809 31 ft 2 kts 109°
2026-05-04 22:13 39.87924 -75.23782 29 ft 5 kts 109°
2026-05-04 22:13 39.87908 -75.23724 25 ft 8 kts 109°
2026-05-04 22:13 39.87890 -75.23654 28 ft 9 kts 109°
2026-05-04 22:13 39.87868 -75.23574 27 ft 10 kts 109°
2026-05-04 22:14 39.87845 -75.23485 29 ft 11 kts 109°
2026-05-04 22:14 39.87798 -75.23406 25 ft 11 kts 147°
2026-05-04 22:14 39.87723 -75.23370 26 ft 12 kts 160°
2026-05-04 22:14 39.87641 -75.23331 28 ft 13 kts 159°
2026-05-04 22:15 39.87556 -75.23287 27 ft 14 kts 158°
2026-05-04 22:15 39.87472 -75.23245 28 ft 12 kts 159°
2026-05-04 22:15 39.87456 -75.23238 29 ft 0 kts 159°
2026-05-04 22:17 39.87438 -75.23229 27 ft 5 kts 159°
2026-05-04 22:18 39.87390 -75.23205 26 ft 10 kts 159°
2026-05-04 22:18 39.87305 -75.23163 26 ft 16 kts 159°
2026-05-04 22:18 39.87212 -75.23150 28 ft 13 kts 225°
2026-05-04 22:18 39.87183 -75.23288 27 ft 19 kts 256°
2026-05-04 22:19 39.87146 -75.23442 25 ft 15 kts 240°
2026-05-04 22:19 39.87079 -75.23450 26 ft 8 kts 166°
2026-05-04 22:19 39.87018 -75.23433 25 ft 10 kts 166°
2026-05-04 22:19 39.87000 -75.23427 27 ft 0 kts 165°
2026-05-04 22:21 39.86973 -75.23418 27 ft 8 kts 165°
2026-05-04 22:21 39.86903 -75.23428 26 ft 13 kts 231°
2026-05-04 22:22 39.86849 -75.23676 26 ft 58 kts 254°
2026-05-04 22:22 39.86689 -75.24478 26 ft 122 kts 255°
2026-05-04 22:22 39.86434 -75.25760 32 ft 168 kts 256°
2026-05-04 22:22 39.86144 -75.27298 458 ft 178 kts 253°
2026-05-04 22:23 39.85846 -75.28877 1082 ft 180 kts 254°
2026-05-04 22:23 39.85504 -75.30507 1420 ft 196 kts 253°
2026-05-04 22:23 39.85172 -75.32319 1541 ft 219 kts 264°
2026-05-04 22:23 39.85280 -75.33673 1665 ft 239 kts 282°
2026-05-04 22:24 39.85742 -75.35803 2357 ft 247 kts 282°
2026-05-04 22:24 39.86173 -75.37973 3169 ft 249 kts 282°
2026-05-04 22:24 39.86593 -75.40169 3954 ft 252 kts 282°
2026-05-04 22:24 39.87016 -75.42385 4799 ft 253 kts 282°
2026-05-04 22:25 39.87443 -75.44619 5615 ft 255 kts 283°
2026-05-04 22:25 39.87876 -75.46854 6482 ft 255 kts 283°
2026-05-04 22:25 39.88312 -75.49095 7233 ft 257 kts 284°
2026-05-04 22:25 39.88753 -75.51356 7983 ft 258 kts 284°
2026-05-04 22:26 39.89198 -75.53634 8777 ft 260 kts 284°
2026-05-04 22:26 39.89645 -75.55924 9566 ft 262 kts 284°
2026-05-04 22:26 39.90096 -75.58244 9922 ft 265 kts 285°
2026-05-04 22:26 39.90462 -75.60590 10023 ft 265 kts 276°
2026-05-04 22:27 39.90568 -75.63070 10245 ft 285 kts 274°
2026-05-04 22:27 39.90645 -75.65752 10381 ft 308 kts 273°
2026-05-04 22:27 39.90731 -75.68635 10516 ft 329 kts 273°
2026-05-04 22:27 39.90826 -75.71701 10633 ft 349 kts 274°
2026-05-04 22:28 39.90923 -75.74918 10974 ft 360 kts 273°
2026-05-04 22:28 39.91026 -75.78191 11550 ft 364 kts 273°
2026-05-04 22:28 39.91133 -75.81503 12176 ft 367 kts 273°
2026-05-04 22:28 39.91244 -75.84835 12844 ft 370 kts 274°
2026-05-04 22:29 39.91357 -75.88191 13512 ft 373 kts 274°
2026-05-04 22:29 39.91468 -75.91578 14110 ft 376 kts 274°
2026-05-04 22:29 39.91582 -75.94990 14694 ft 379 kts 273°
2026-05-04 22:29 39.91607 -75.98439 15263 ft 382 kts 270°
2026-05-04 22:30 39.91508 -76.01862 15853 ft 385 kts 269°
2026-05-04 22:30 39.91361 -76.05350 16417 ft 387 kts 268°
2026-05-04 22:30 39.91190 -76.08857 16971 ft 390 kts 268°
2026-05-04 22:30 39.91010 -76.12398 17508 ft 392 kts 268°
2026-05-04 22:31 39.90834 -76.15954 18042 ft 394 kts 268°
2026-05-04 22:31 39.90771 -76.19526 18494 ft 396 kts 274°
2026-05-04 22:31 39.90924 -76.23117 18933 ft 398 kts 274°
2026-05-04 22:31 39.91079 -76.26736 19386 ft 400 kts 274°
2026-05-04 22:32 39.91236 -76.30362 19850 ft 402 kts 274°
2026-05-04 22:32 39.91394 -76.34007 20281 ft 405 kts 274°
2026-05-04 22:32 39.91553 -76.37686 20719 ft 407 kts 274°
2026-05-04 22:32 39.91710 -76.41371 21163 ft 409 kts 275°
2026-05-04 22:33 39.91866 -76.45081 21613 ft 411 kts 274°
2026-05-04 22:33 39.92020 -76.48810 22049 ft 413 kts 274°
2026-05-04 22:33 39.92172 -76.52560 22474 ft 415 kts 274°
2026-05-04 22:33 39.92323 -76.56318 22882 ft 417 kts 274°
2026-05-04 22:34 39.92475 -76.60106 23295 ft 419 kts 274°
2026-05-04 22:34 39.92625 -76.63912 23665 ft 422 kts 274°
2026-05-04 22:34 39.92774 -76.67732 24023 ft 423 kts 274°
2026-05-04 22:34 39.93109 -76.71545 24371 ft 424 kts 282°
2026-05-04 22:35 39.93794 -76.75284 24742 ft 425 kts 284°
2026-05-04 22:35 39.94494 -76.78983 25089 ft 426 kts 284°
2026-05-04 22:35 39.95197 -76.82728 25552 ft 424 kts 284°
2026-05-04 22:35 39.95890 -76.86457 26038 ft 422 kts 284°
2026-05-04 22:36 39.96580 -76.90179 26397 ft 424 kts 284°
2026-05-04 22:36 39.97275 -76.93937 26529 ft 429 kts 284°
2026-05-04 22:36 39.97976 -76.97727 26757 ft 431 kts 284°
2026-05-04 22:36 39.98681 -77.01530 27081 ft 430 kts 284°
2026-05-04 22:37 39.99382 -77.05312 27463 ft 429 kts 284°
2026-05-04 22:37 40.00079 -77.09091 27844 ft 427 kts 284°
2026-05-04 22:37 40.00769 -77.12849 28217 ft 426 kts 284°
2026-05-04 22:37 40.01456 -77.16595 28602 ft 424 kts 284°
2026-05-04 22:38 40.02140 -77.20325 29007 ft 422 kts 284°
2026-05-04 22:38 40.02823 -77.24036 29403 ft 420 kts 284°
2026-05-04 22:38 40.03503 -77.27733 29802 ft 418 kts 284°
2026-05-04 22:38 40.04178 -77.31413 30145 ft 416 kts 284°
2026-05-04 22:39 40.04849 -77.35091 30454 ft 415 kts 284°
2026-05-04 22:39 40.05514 -77.38757 30733 ft 415 kts 284°
2026-05-04 22:39 40.06175 -77.42423 31004 ft 415 kts 284°
2026-05-04 22:39 40.06835 -77.46088 31267 ft 415 kts 284°
2026-05-04 22:40 40.07496 -77.49751 31553 ft 414 kts 284°
2026-05-04 22:40 40.08155 -77.53410 31828 ft 414 kts 283°
2026-05-04 22:40 40.08803 -77.57029 32069 ft 414 kts 283°
2026-05-04 22:40 40.09466 -77.60740 32316 ft 414 kts 283°
2026-05-04 22:41 40.10112 -77.64354 32580 ft 414 kts 283°
2026-05-04 22:41 40.10766 -77.68015 32821 ft 414 kts 283°
2026-05-04 22:41 40.11424 -77.71687 33023 ft 414 kts 283°
2026-05-04 22:41 40.12079 -77.75356 33226 ft 415 kts 283°
2026-05-04 22:42 40.12734 -77.79033 33470 ft 415 kts 283°
2026-05-04 22:42 40.13343 -77.82715 33711 ft 415 kts 279°
2026-05-04 22:42 40.13578 -77.86474 33908 ft 416 kts 272°
2026-05-04 22:42 40.13614 -77.90262 34069 ft 416 kts 272°
2026-05-04 22:43 40.13650 -77.94040 34242 ft 417 kts 272°
2026-05-04 22:43 40.13686 -77.97822 34424 ft 417 kts 272°
2026-05-04 22:43 40.13726 -78.01614 34607 ft 417 kts 272°
2026-05-04 22:43 40.13767 -78.05400 34792 ft 417 kts 272°
2026-05-04 22:44 40.13808 -78.09186 34982 ft 417 kts 272°
2026-05-04 22:44 40.13846 -78.12971 35130 ft 416 kts 272°
2026-05-04 22:44 40.13976 -78.16747 35290 ft 416 kts 279°
2026-05-04 22:44 40.14770 -78.20369 35460 ft 416 kts 293°
2026-05-04 22:45 40.16001 -78.23750 35614 ft 417 kts 294°
2026-05-04 22:45 40.18567 -78.30564 35854 ft 419 kts 295°
2026-05-04 22:45 40.19880 -78.34022 35863 ft 419 kts 295°
2026-05-04 22:46 40.22425 -78.40750 35860 ft 414 kts 295°
2026-05-04 22:46 40.24978 -78.47551 35865 ft 417 kts 294°
2026-05-04 22:47 40.27524 -78.54382 35860 ft 417 kts 294°
2026-05-04 22:47 40.30065 -78.61218 35878 ft 417 kts 294°
2026-05-04 22:48 40.32601 -78.68060 35892 ft 418 kts 294°
2026-05-04 22:48 40.35138 -78.74911 35900 ft 418 kts 294°
2026-05-04 22:49 40.37677 -78.81763 35907 ft 418 kts 294°
2026-05-04 22:49 40.40207 -78.88617 35902 ft 417 kts 294°
2026-05-04 22:50 40.42732 -78.95476 35904 ft 417 kts 294°
2026-05-04 22:50 40.45250 -79.02343 35884 ft 417 kts 294°
2026-05-04 22:51 40.47769 -79.09210 35876 ft 417 kts 294°
2026-05-04 22:51 40.50280 -79.16080 35882 ft 417 kts 294°
2026-05-04 22:52 40.52782 -79.22946 35888 ft 416 kts 294°
2026-05-04 22:52 40.55278 -79.29820 35889 ft 416 kts 294°
2026-05-04 22:53 40.57770 -79.36676 35887 ft 416 kts 294°
2026-05-04 22:53 40.60242 -79.43509 35887 ft 415 kts 294°
2026-05-04 22:54 40.62717 -79.50376 35892 ft 415 kts 294°
2026-05-04 22:54 40.65194 -79.57237 35886 ft 415 kts 294°
2026-05-04 22:55 40.67664 -79.64099 35880 ft 414 kts 294°
2026-05-04 22:55 40.70126 -79.70965 35878 ft 414 kts 294°
2026-05-04 22:56 40.72578 -79.77828 35873 ft 414 kts 294°
2026-05-04 22:56 40.75030 -79.84698 35875 ft 414 kts 294°
2026-05-04 22:57 40.77478 -79.91564 35870 ft 413 kts 294°
2026-05-04 22:57 40.79915 -79.98431 35878 ft 413 kts 294°
2026-05-04 22:58 40.82346 -80.05297 35873 ft 413 kts 293°
2026-05-04 22:58 40.84773 -80.12169 35879 ft 413 kts 293°
2026-05-04 22:59 40.87200 -80.19046 35867 ft 413 kts 293°
2026-05-04 22:59 40.89619 -80.25928 35869 ft 413 kts 293°
2026-05-04 23:00 40.92019 -80.32774 35834 ft 413 kts 293°
2026-05-04 23:00 40.94429 -80.39662 35838 ft 412 kts 293°
2026-05-04 23:01 40.96840 -80.46557 35838 ft 413 kts 293°
2026-05-04 23:01 40.99242 -80.53459 35558 ft 411 kts 293°
2026-05-04 23:02 41.00432 -80.56889 35309 ft 410 kts 293°
2026-05-04 23:02 41.01620 -80.60312 35075 ft 409 kts 293°
2026-05-04 23:02 41.02808 -80.63731 34838 ft 408 kts 293°
2026-05-04 23:02 41.03976 -80.67096 34609 ft 407 kts 293°
2026-05-04 23:03 41.05155 -80.70498 34359 ft 406 kts 293°
2026-05-04 23:03 41.06332 -80.73903 34125 ft 405 kts 294°
2026-05-04 23:03 41.07503 -80.77300 33899 ft 404 kts 294°
2026-05-04 23:03 41.08669 -80.80684 33746 ft 403 kts 294°
2026-05-04 23:04 41.11008 -80.87467 33788 ft 405 kts 294°
2026-05-04 23:04 41.13348 -80.94275 33777 ft 406 kts 293°
2026-05-04 23:05 41.15682 -81.01100 33779 ft 406 kts 293°
2026-05-04 23:05 41.18016 -81.07943 33767 ft 407 kts 293°
2026-05-04 23:06 41.20357 -81.14803 33782 ft 408 kts 293°
2026-05-04 23:06 41.22696 -81.21668 33772 ft 408 kts 293°
2026-05-04 23:07 41.25036 -81.28555 33768 ft 409 kts 293°
2026-05-04 23:07 41.27349 -81.35411 33764 ft 409 kts 293°
2026-05-04 23:08 41.29681 -81.42325 33758 ft 410 kts 293°
2026-05-04 23:08 41.32016 -81.49261 33754 ft 411 kts 293°
2026-05-04 23:09 41.34352 -81.56209 33717 ft 412 kts 293°
2026-05-04 23:09 41.36690 -81.63191 33708 ft 412 kts 293°
2026-05-04 23:10 41.39025 -81.70171 33707 ft 413 kts 293°
2026-05-04 23:10 41.40963 -81.75997 33705 ft 414 kts 293°
2026-05-04 23:11 41.43288 -81.83006 33703 ft 414 kts 293°
2026-05-04 23:11 41.45620 -81.90042 33718 ft 415 kts 293°
2026-05-04 23:12 41.46788 -81.93568 33424 ft 414 kts 293°
2026-05-04 23:12 41.47933 -81.97025 33237 ft 401 kts 293°
2026-05-04 23:12 41.49042 -82.00374 33144 ft 389 kts 293°
2026-05-04 23:12 41.50127 -82.03653 32790 ft 388 kts 293°
2026-05-04 23:13 41.51220 -82.06968 32059 ft 392 kts 292°
2026-05-04 23:13 41.52315 -82.10302 31326 ft 394 kts 292°
2026-05-04 23:13 41.53417 -82.13665 30581 ft 396 kts 292°
2026-05-04 23:13 41.54528 -82.17048 29757 ft 400 kts 292°
2026-05-04 23:14 41.55656 -82.20476 28829 ft 403 kts 292°
2026-05-04 23:14 41.56782 -82.23909 27987 ft 405 kts 292°
2026-05-04 23:14 41.57912 -82.27368 27087 ft 408 kts 292°
2026-05-04 23:14 41.59046 -82.30854 26117 ft 412 kts 292°
2026-05-04 23:15 41.60194 -82.34382 25128 ft 416 kts 293°
2026-05-04 23:15 41.61335 -82.37888 24224 ft 418 kts 293°
2026-05-04 23:15 41.62496 -82.41455 23335 ft 419 kts 293°
2026-05-04 23:15 41.63656 -82.45021 22538 ft 416 kts 293°
2026-05-04 23:16 41.64801 -82.48542 21827 ft 411 kts 293°
2026-05-04 23:16 41.65932 -82.52025 21109 ft 406 kts 293°
2026-05-04 23:16 41.67049 -82.55477 20395 ft 402 kts 293°
2026-05-04 23:16 41.68155 -82.58896 19686 ft 399 kts 292°
2026-05-04 23:17 41.69245 -82.62271 19258 ft 388 kts 292°
2026-05-04 23:17 41.70293 -82.65521 19130 ft 373 kts 292°
2026-05-04 23:17 41.71301 -82.68650 19004 ft 359 kts 292°
2026-05-04 23:17 41.72271 -82.71667 18863 ft 347 kts 292°
2026-05-04 23:18 41.73210 -82.74599 18549 ft 339 kts 292°
2026-05-04 23:18 41.74131 -82.77479 18312 ft 336 kts 293°
2026-05-04 23:18 41.75285 -82.80204 18067 ft 337 kts 304°
2026-05-04 23:18 41.76801 -82.82595 17810 ft 337 kts 310°
2026-05-04 23:19 41.78391 -82.84905 17549 ft 336 kts 310°
2026-05-04 23:19 41.79976 -82.87204 17274 ft 335 kts 310°
2026-05-04 23:19 41.81552 -82.89496 16917 ft 334 kts 310°
2026-05-04 23:19 41.83118 -82.91784 16458 ft 331 kts 310°
2026-05-04 23:20 41.84667 -82.94060 15990 ft 329 kts 309°
2026-05-04 23:20 41.86207 -82.96321 15531 ft 327 kts 309°
2026-05-04 23:20 41.87739 -82.98570 15077 ft 326 kts 309°
2026-05-04 23:20 41.89263 -83.00815 14589 ft 324 kts 309°
2026-05-04 23:21 41.90770 -83.03046 14134 ft 321 kts 309°
2026-05-04 23:21 41.92265 -83.05264 13673 ft 319 kts 309°
2026-05-04 23:21 41.93249 -83.06727 13354 ft 318 kts 309°
2026-05-04 23:21 41.93884 -83.07673 13136 ft 317 kts 308°
2026-05-04 23:22 41.95351 -83.09893 12605 ft 315 kts 309°
2026-05-04 23:22 41.96813 -83.12075 12129 ft 313 kts 309°
2026-05-04 23:22 41.98268 -83.14230 11671 ft 310 kts 309°
2026-05-04 23:22 41.99700 -83.16352 11451 ft 300 kts 309°
2026-05-04 23:23 42.01079 -83.18402 11111 ft 295 kts 308°
2026-05-04 23:23 42.02455 -83.20448 10688 ft 294 kts 308°
2026-05-04 23:23 42.03805 -83.22454 10525 ft 283 kts 308°
2026-05-04 23:23 42.05110 -83.24369 10387 ft 273 kts 308°
2026-05-04 23:24 42.06394 -83.26220 10111 ft 270 kts 311°
2026-05-04 23:24 42.07952 -83.27643 9779 ft 276 kts 334°
2026-05-04 23:24 42.09864 -83.28082 9426 ft 287 kts 359°
2026-05-04 23:24 42.11800 -83.27332 9016 ft 297 kts 24°
2026-05-04 23:25 42.13605 -83.25936 8578 ft 300 kts 26°
2026-05-04 23:25 42.15383 -83.24536 8194 ft 299 kts 26°
2026-05-04 23:25 42.17169 -83.23127 7977 ft 293 kts 26°
2026-05-04 23:25 42.18901 -83.21754 7984 ft 277 kts 26°
2026-05-04 23:26 42.20527 -83.20464 7915 ft 266 kts 25°
2026-05-04 23:26 42.22092 -83.19233 7764 ft 258 kts 25°
2026-05-04 23:26 42.23639 -83.18029 7500 ft 255 kts 24°
2026-05-04 23:26 42.25185 -83.16876 7185 ft 254 kts 24°
2026-05-04 23:27 42.26721 -83.15760 6855 ft 254 kts 24°
2026-05-04 23:27 42.28273 -83.14636 6535 ft 253 kts 24°
2026-05-04 23:27 42.29824 -83.13506 6206 ft 253 kts 24°
2026-05-04 23:27 42.31376 -83.12370 5865 ft 253 kts 24°
2026-05-04 23:28 42.32929 -83.11231 5505 ft 254 kts 24°
2026-05-04 23:28 42.34481 -83.10089 5174 ft 252 kts 24°
2026-05-04 23:28 42.36010 -83.08961 4983 ft 251 kts 23°
2026-05-04 23:28 42.37548 -83.07825 4983 ft 252 kts 24°
2026-05-04 23:29 42.39091 -83.06686 4984 ft 253 kts 24°
2026-05-04 23:29 42.40637 -83.05544 4987 ft 253 kts 24°
2026-05-04 23:29 42.42184 -83.04402 4985 ft 253 kts 24°
2026-05-04 23:29 42.43729 -83.03262 4986 ft 252 kts 23°
2026-05-04 23:30 42.45341 -83.02541 5001 ft 238 kts 355°
2026-05-04 23:30 42.46894 -83.02995 4994 ft 222 kts 322°
2026-05-04 23:30 42.47909 -83.04419 4985 ft 205 kts 288°
2026-05-04 23:30 42.48252 -83.06251 4985 ft 200 kts 272°
2026-05-04 23:31 42.48002 -83.08043 4983 ft 196 kts 241°
2026-05-04 23:31 42.47225 -83.09533 4982 ft 198 kts 233°
2026-05-04 23:31 42.46333 -83.11003 4983 ft 199 kts 232°
2026-05-04 23:31 42.45443 -83.12439 4984 ft 199 kts 232°
2026-05-04 23:32 42.44575 -83.13854 4984 ft 198 kts 232°
2026-05-04 23:32 42.43698 -83.15291 4987 ft 198 kts 232°
2026-05-04 23:32 42.42816 -83.16726 4987 ft 198 kts 232°
2026-05-04 23:32 42.41936 -83.18159 4985 ft 198 kts 232°
2026-05-04 23:33 42.40889 -83.19388 4725 ft 201 kts 216°
2026-05-04 23:33 42.39675 -83.20319 4452 ft 200 kts 214°
2026-05-04 23:33 42.38457 -83.21213 4202 ft 198 kts 214°
2026-05-04 23:33 42.37253 -83.22102 3925 ft 197 kts 214°
2026-05-04 23:34 42.36052 -83.22992 3662 ft 196 kts 213°
2026-05-04 23:34 42.34860 -83.23874 3395 ft 194 kts 214°
2026-05-04 23:34 42.33684 -83.24745 3141 ft 191 kts 213°
2026-05-04 23:34 42.32558 -83.25577 2886 ft 176 kts 213°
2026-05-04 23:35 42.31528 -83.26338 2667 ft 163 kts 213°
2026-05-04 23:35 42.30544 -83.27068 2448 ft 161 kts 213°
2026-05-04 23:35 42.29584 -83.27778 2239 ft 150 kts 213°
2026-05-04 23:35 42.28688 -83.28441 2047 ft 143 kts 212°
2026-05-04 23:36 42.27828 -83.29077 1860 ft 140 kts 213°
2026-05-04 23:36 42.26960 -83.29720 1667 ft 145 kts 212°
2026-05-04 23:36 42.26098 -83.30356 1500 ft 137 kts 213°
2026-05-04 23:36 42.25268 -83.30969 1352 ft 136 kts 213°
2026-05-04 23:37 42.24437 -83.31583 1204 ft 138 kts 209°
2026-05-04 23:37 42.23578 -83.32217 1042 ft 142 kts 208°
2026-05-04 23:37 42.22717 -83.32854 845 ft 141 kts 210°
2026-05-04 23:37 42.21856 -83.33493 673 ft 140 kts 210°
2026-05-04 23:38 42.21105 -83.34047 648 ft 101 kts 209°
2026-05-04 23:38 42.20707 -83.34347 645 ft 36 kts 213°
2026-05-04 23:38 42.20577 -83.34547 648 ft 24 kts 237°
2026-05-04 23:38 42.20543 -83.34625 648 ft 8 kts 239°
2026-05-04 23:39 42.20546 -83.34678 648 ft 6 kts 327°
2026-05-04 23:39 42.20598 -83.34672 648 ft 12 kts 19°
2026-05-04 23:39 42.20690 -83.34601 647 ft 19 kts 29°
2026-05-04 23:39 42.20821 -83.34505 647 ft 23 kts 28°
2026-05-04 23:40 42.20966 -83.34399 649 ft 24 kts 28°
2026-05-04 23:40 42.21118 -83.34289 647 ft 25 kts 28°
2026-05-04 23:40 42.21272 -83.34175 648 ft 26 kts 29°
2026-05-04 23:40 42.21431 -83.34056 649 ft 26 kts 28°
2026-05-04 23:41 42.21594 -83.33938 647 ft 27 kts 29°
2026-05-04 23:41 42.21761 -83.33810 644 ft 25 kts 27°
2026-05-04 23:41 42.21853 -83.33852 648 ft 15 kts 278°
2026-05-04 23:41 42.21849 -83.34000 647 ft 17 kts 268°
2026-05-04 23:42 42.21843 -83.34184 646 ft 21 kts 268°
2026-05-04 23:42 42.21834 -83.34409 647 ft 26 kts 267°
2026-05-04 23:42 42.21835 -83.34654 647 ft 26 kts 269°
2026-05-04 23:42 42.21831 -83.34896 646 ft 26 kts 268°
2026-05-04 23:43 42.21826 -83.35142 646 ft 26 kts 268°
2026-05-04 23:43 42.21822 -83.35385 646 ft 26 kts 270°
2026-05-04 23:43 42.21820 -83.35614 645 ft 18 kts 277°
2026-05-04 23:43 42.21895 -83.35641 645 ft 14 kts 27°
2026-05-04 23:44 42.21989 -83.35570 646 ft 17 kts 29°
2026-05-04 23:44 42.22098 -83.35490 646 ft 18 kts 28°
2026-05-04 23:44 42.22214 -83.35405 646 ft 21 kts 28°
2026-05-04 23:44 42.22343 -83.35282 646 ft 23 kts 45°
2026-05-04 23:45 42.22453 -83.35116 646 ft 23 kts 45°
2026-05-04 23:45 42.22571 -83.35020 646 ft 19 kts 29°
2026-05-04 23:45 42.22631 -83.34975 646 ft 0 kts 31°
2026-05-04 23:46 42.22637 -83.34960 647 ft 3 kts 82°
2026-05-04 23:46 42.22631 -83.34918 646 ft 3 kts 116°
2026-05-04 23:46 42.22621 -83.34898 647 ft 1 kts 120°
2026-05-04 23:46 42.22618 -83.34891 647 ft 0 kts 120°